星链-35563(STARLINK-35563)

导读

STARLINK-35563是美国(US)于2025年10月19日发射的星链(Starlink)卫星,星链项目是太空探索技术公司(SpaceX)打造的低轨卫星互联网星座,这类卫星主要用于为全球提供覆盖广泛、低延迟的互联网接入服务,填补地面网络覆盖盲区,推动全球互联基础设施建设。

基本信息
目录编号:
66087
目录名称:
STARLINK-35563
国际标识:
2025-236B
轨道中心:
EARTH
卫星名称:
星链-35563
卫星全名:
星链-35563(STARLINK-35563)
卫星状态:
在轨 (已飞行328 天)
发射日期:
2025-10-19 UTC
国别 :
美国 (US)
星等 :
--
该卫星已列入 空间交会检测服务 Space Conjunction Data Service (SCDS) ,当前飞行风险评估等级: 无高风险
轨道信息
数据来源 国际轨道数据
星历时间: 2026-09-11T21:27:42+0800
18小时前
查看轨道信息
半长轴: 6840.813km
偏心率: 0.0001032
轨道倾角: 53.160°
近地点辐角 89.739°
升交点赤经 317.592°
平近点角 270.373°
近地点: 461.97km
远地点: 463.382km
周期: 93.847分钟
每日圈数: 15.344094
详细信息
固有亮度:
5
最大亮度:
2.5
卫星平台:
Starlink V1.0
覆盖范围:
全球
运营商:
太空探索技术公司
运营商所在国:
美国
制造商(研发单位):
太空探索技术公司
制造商所在国:
美国
使用方式:
暂无
卫星简介
Starlink 计划是 SpaceX 推出的全球卫星互联网项目,通过发射低轨道卫星,为全球尤其是偏远地区提供高速、低延迟的互联网服务。自 2019 年起,Starlink 已部署数千颗卫星,旨在缩小全球数字鸿沟,推动互联网普及。该项目还为军事、航空等行业提供通信支持,带来广泛经济效益。
2D轨道图
3D轨道图
轨道高度分析图
轨道倾角分析图
轨道综合分析图
查看轨道综合分析图
交会数据列表
事件ID 空间交会对象 最接近时刻(TCA) 交会距离 交会风险概率(CRP) 交会风险指数(CRI) 操作
CDM_260912-091606-608706-689221
2026-09-12T
09:16:44+0000
1.233 km
极远距离
8.309112E-6 低风险 0.53
CDM_260912-175206-608706-689221
2026-09-12T
17:52:37+0000
2.250 km
极远距离
1.46124E-6 低风险 0.38
CDM_260912-074206-608706-689222
2026-09-12T
07:42:56+0000
2.554 km
极远距离
1.155994E-6 低风险 0.36
CDM_260912-025206-051306-608721
2026-09-12T
02:52:38+0000
2.746 km
极远距离
9.251755E-7 极低风险 0.34
与全量物体交会距离演化趋势
与全量物体交会风险概率演化趋势